Lid_Strength_Index
9 13 15 13 12 11 12 13 14 11 9 11 11 11 10 8 8 8 7 7 6 6 4 5 5 5 5 2 2 2 2 1 1 1 2 2 2 1 1 0 0 -0 0 0
12 14 12 11 11 11 12 13 14 11 9 10 11 13 11 10 9 8 8 8 7 6 6 6 6 5 7 6 4 2 2 1 1 1 1 1 1 1 1 0 -0 -0 1 0
15 13 11 12 12 12 13 14 14 14 11 10 12 14 13 11 9 9 9 8 6 6 6 7 6 7 7 8 8 6 5 1 1 1 1 1 1 1 1 1 1 1 1 0
13 11 13 13 13 12 14 10 11 12 14 17 12 19 14 12 12 10 11 9 8 7 6 6 6 8 9 9 8 8 7 6 4 3 1 2 2 3 2 1 1 1 1 1
14 14 14 14 13 12 13 10 11 12 14 14 15 17 15 13 14 13 11 11 9 8 7 7 7 6 8 8 8 7 8 7 7 5 5 3 2 2 2 1 1 1 2 2
13 11 12 13 12 11 10 11 10 12 14 19 17 17 17 15 14 14 11 10 8 8 7 7 7 7 8 8 7 7 8 8 8 6 6 6 6 6 4 3 3 3 3 3
13 13 12 11 13 11 12 13 19 20 20 21 15 17 16 13 12 12 11 10 9 8 8 9 9 9 8 8 8 7 8 8 7 7 7 7 7 6 7 6 5 5 5 5
17 19 14 12 13 15 14 13 19 24 22 19 15 20 16 12 11 11 11 10 10 10 10 9 9 9 8 8 9 8 8 8 8 8 8 7 7 7 7 7 6 6 6 6
17 17 12 12 12 12 14 16 13 16 18 19 16 14 13 11 12 12 12 12 12 11 11 11 10 10 10 10 10 10 9 9 9 9 9 9 8 8 7 7 6 6 7 6
14 18 14 13 12 12 13 12 17 17 22 23 18 17 17 14 13 12 13 13 13 12 12 12 11 11 11 11 11 10 10 9 9 9 9 10 9 8 8 7 7 8 7 7
13 15 16 13 15 15 14 15 14 14 16 19 20 18 13 13 13 14 13 13 13 13 13 12 12 11 11 11 11 11 11 11 10 10 10 10 10 9 8 8 8 8 8 8
12 15 20 17 14 13 13 14 14 18 18 17 16 17 10 12 13 13 13 12 12 12 12 12 12 12 12 11 11 11 11 11 10 10 10 10 10 9 9 9 9 8 9 9
13 19 23 19 16 13 14 13 13 13 15 17 19 17 10 11 12 12 13 13 12 13 12 12 12 12 11 11 11 11 10 10 10 9 9 9 9 9 9 9 8 8 9 9
11 15 18 21 18 16 17 15 14 15 19 17 17 16 13 13 13 12 12 12 13 13 12 12 12 12 12 11 11 11 10 10 9 9 9 9 9 8 8 8 8 8 8 8
13 17 17 16 15 16 16 16 16 16 15 18 16 15 13 13 13 12 12 11 12 12 12 12 12 12 12 12 11 11 10 10 9 9 9 9 8 7 7 7 7 7 8 8
13 18 18 22 16 16 18 17 16 16 15 15 14 15 11 11 12 13 11 11 11 11 11 11 10 10 10 10 10 9 10 9 9 9 9 9 9 8 8 8 7 7 8 8
16 20 23 24 20 22 24 21 18 16 15 14 16 13 11 13 12 12 12 11 11 11 11 11 10 10 10 10 9 11 10 10 10 9 9 9 9 8 8 8 7 7 8 8
19 21 22 25 25 28 19 16 17 17 15 13 13 12 11 12 12 12 12 12 11 11 11 11 11 11 10 10 11 10 10 9 10 10 10 10 10 9 9 8 8 8 8 8
16 17 25 26 27 20 18 18 18 18 17 13 12 11 12 12 13 14 11 11 11 11 10 10 10 10 11 10 10 10 10 10 10 10 11 11 11 11 11 11 10 10 9 9
16 17 20 27 28 29 19 18 16 16 21 14 11 11 12 12 15 15 12 11 10 10 10 10 10 10 9 10 10 10 10 10 10 11 11 11 11 11 10 10 10 10 10 10
21 23 24 25 27 22 16 16 15 23 19 14 11 11 12 13 13 12 11 11 10 10 10 10 10 10 10 10 11 11 11 11 11 11 11 11 11 11 11 11 11 11 10 10
21 22 24 24 27 25 15 16 18 16 15 14 12 12 12 13 12 12 11 11 11 11 11 11 11 11 11 11 11 12 11 11 11 11 12 12 13 12 11 11 11 11 11 11
21 18 20 19 19 16 14 15 14 14 14 14 13 12 12 13 13 12 12 12 11 11 12 11 12 12 11 11 11 12 11 11 12 15 16 15 14 12 12 12 11 11 10 10
18 16 19 18 17 16 15 14 14 14 14 12 12 12 13 13 12 13 13 13 12 12 12 12 12 12 12 12 12 12 12 14 17 16 15 14 14 13 13 12 11 10 10 9
18 17 18 19 16 16 15 14 14 14 14 13 13 13 12 12 13 13 13 13 12 12 12 13 14 14 14 15 15 16 15 18 17 17 15 15 14 14 12 12 12 11 10 9
17 18 19 19 15 15 15 13 13 14 14 13 13 13 13 12 13 13 13 13 12 13 14 15 16 16 17 17 17 17 19 19 20 16 15 15 14 13 12 12 11 8 7 7